Change the Weather History Date:

Friday, March 8, 2013

  Actual Average (KTUL) Record (KTUL)
Temperature  
Mean Temperature 50 °F 49 °F  
Max Temperature 59 °F 60 °F 87 °F (1925)
Min Temperature 42 °F 38 °F 5 °F (1967)
Degree Days  
Heating Degree Days 14 16  
Month to date heating degree days 140  
Since 1 July heating degree days 3051  
Cooling Degree Days 0 0  
Month to date cooling degree days 0  
Year to date cooling degree days 1  
Moisture  
Dew Point 35 °F    
Average Humidity 55    
Maximum Humidity 66    
Minimum Humidity 42    
Precipitation  
Precipitation 0.00 in 0.10 in 1.67 in (1994)
Month to date precipitation 0.80  
Year to date precipitation 4.31  
Sea Level Pressure  
Sea Level Pressure 30.15 in    
Wind  
Wind Speed 11 mph (SE)    
Max Wind Speed 22 mph    
Max Gust Speed 29 mph    
Visibility 9 miles    
Events Rain    
T = Trace of Precipitation, MM = Missing Value Source: NWS Daily Summary

Daily Weather History Graph

Daily Weather History Graph

Search for Another Location

Airport or City:

Trip Planner

Search our weather history database for the weather conditions in past years. The results will help you decide how hot, cold, wet, or windy it might be!

Date:

Astronomy

Mar. 08, 2013 Rise Set
Actual Time 6:42 AM CST 6:23 PM CST
Civil Twilight 6:16 AM CST 6:49 PM CST
Nautical Twilight 5:46 AM CST 7:18 PM CST
Astronomical Twilight 5:17 AM CST 7:48 PM CST
Moon 4:22 AM CST (3/8) 3:23 PM CST (3/8)
Length of Visible Light 12h 32m
Length of Day
11h 41m
Waning Crescent, 11% of the Moon is Illuminated
Mar 8
Waning Crescent
Mar 11
New
Mar 19
First Quarter
Mar 27
Full
Apr 2
Last Quarter

Hourly Weather History & Observations

Time (CST) Temp. Windchill Dew Point Humidity Pressure Visibility Wind Dir Wind Speed Gust Speed Precip Events Conditions
12:15 AM 42.8 °F 38.6 °F 32.0 °F 66% 30.17 in 10.0 mi SE 6.9 mph - N/A   Clear
12:35 AM 44.6 °F 41.4 °F 32.0 °F 61% 30.17 in 7.0 mi SE 5.8 mph - N/A   Clear
1:15 AM 44.6 °F 41.4 °F 32.0 °F 61% 30.19 in 5.0 mi ESE 5.8 mph - N/A   Haze
1:35 AM 44.6 °F 40.2 °F 32.0 °F 61% 30.19 in 5.0 mi ESE 8.1 mph - N/A   Haze
2:15 AM 44.6 °F 40.2 °F 32.0 °F 61% 30.19 in 5.0 mi ESE 8.1 mph - N/A   Haze
2:35 AM 44.6 °F 40.2 °F 32.0 °F 61% 30.19 in 7.0 mi ESE 8.1 mph - N/A   Clear
3:15 AM 44.6 °F 40.2 °F 32.0 °F 61% 30.17 in 10.0 mi ESE 8.1 mph - N/A   Clear
3:35 AM 46.4 °F 41.9 °F 32.0 °F 57% 30.17 in 10.0 mi ESE 9.2 mph - N/A   Clear
3:55 AM 44.6 °F 38.8 °F 32.0 °F 61% 30.17 in 10.0 mi ESE 11.5 mph - N/A   Clear
4:15 AM 44.6 °F 39.2 °F 32.0 °F 61% 30.18 in 10.0 mi ESE 10.4 mph - N/A   Clear
4:35 AM 44.6 °F 39.2 °F 32.0 °F 61% 30.19 in 10.0 mi ESE 10.4 mph - N/A   Clear
4:55 AM 44.6 °F 38.8 °F 32.0 °F 61% 30.20 in 10.0 mi ESE 11.5 mph - N/A   Clear
5:15 AM 44.6 °F 38.8 °F 32.0 °F 61% 30.19 in 10.0 mi ESE 11.5 mph - N/A   Clear
5:35 AM 44.6 °F 39.2 °F 32.0 °F 61% 30.20 in 10.0 mi ESE 10.4 mph - N/A   Clear
5:55 AM 44.6 °F 38.4 °F 32.0 °F 61% 30.19 in 10.0 mi ESE 12.7 mph - N/A   Clear
6:15 AM 44.6 °F 38.8 °F 32.0 °F 61% 30.20 in 10.0 mi ESE 11.5 mph - N/A   Clear
6:35 AM 44.6 °F 39.2 °F 32.0 °F 61% 30.20 in 10.0 mi ESE 10.4 mph - N/A   Clear
6:55 AM 44.6 °F 38.8 °F 32.0 °F 61% 30.20 in 10.0 mi ESE 11.5 mph - N/A   Clear
7:15 AM 44.6 °F 40.2 °F 32.0 °F 61% 30.21 in 10.0 mi SE 8.1 mph - N/A   Clear
7:35 AM 46.4 °F 42.4 °F 32.0 °F 57% 30.21 in 10.0 mi SE 8.1 mph - N/A   Clear
7:55 AM 46.4 °F 41.5 °F 33.8 °F 62% 30.22 in 10.0 mi SE 10.4 mph - N/A   Clear
8:15 AM 46.4 °F 40.7 °F 33.8 °F 62% 30.23 in 10.0 mi SSE 12.7 mph - N/A   Clear
8:35 AM 46.4 °F 39.8 °F 33.8 °F 62% 30.22 in 10.0 mi SSE 16.1 mph 21.9 mph N/A   Clear
8:55 AM 48.2 °F - 33.8 °F 58% 30.21 in 10.0 mi SE 16.1 mph 20.7 mph N/A   Clear
9:15 AM 50.0 °F - 33.8 °F 54% 30.21 in 10.0 mi SSE 18.4 mph 23.0 mph N/A   Clear
9:35 AM 51.8 °F - 33.8 °F 50% 30.22 in 10.0 mi SSE 17.3 mph - N/A   Clear
9:55 AM 53.6 °F - 33.8 °F 47% 30.22 in 10.0 mi SSE 15.0 mph 19.6 mph N/A   Clear
10:15 AM 55.4 °F - 35.6 °F 47% 30.20 in 10.0 mi SSE 21.9 mph 26.5 mph N/A   Scattered Clouds
10:35 AM 57.2 °F - 35.6 °F 44% 30.20 in 10.0 mi SSE 17.3 mph 25.3 mph N/A   Scattered Clouds
10:55 AM 59.0 °F - 35.6 °F 42% 30.21 in 10.0 mi South 18.4 mph 25.3 mph N/A   Clear
11:35 AM 55.4 °F - 35.6 °F 47% 30.22 in 10.0 mi South 12.7 mph - N/A   Mostly Cloudy
11:55 AM 51.8 °F - 37.4 °F 58% 30.21 in 10.0 mi South 12.7 mph - N/A   Mostly Cloudy
12:15 PM 51.8 °F - 39.2 °F 62% 30.21 in 7.0 mi South 13.8 mph 19.6 mph N/A Rain Rain
12:35 PM 51.8 °F - 39.2 °F 62% 30.20 in 10.0 mi SSE 15.0 mph 20.7 mph N/A   Mostly Cloudy
12:55 PM 51.8 °F - 39.2 °F 62% 30.19 in 10.0 mi SSE 15.0 mph 19.6 mph N/A   Mostly Cloudy
1:15 PM 53.6 °F - 41.0 °F 62% 30.17 in 10.0 mi SSE 16.1 mph - N/A   Mostly Cloudy
1:35 PM 53.6 °F - 41.0 °F 62% 30.15 in 10.0 mi SSE 13.8 mph 21.9 mph N/A   Scattered Clouds
1:55 PM 53.6 °F - 41.0 °F 62% 30.14 in 10.0 mi SSE 18.4 mph 21.9 mph N/A   Mostly Cloudy
2:15 PM 53.6 °F - 41.0 °F 62% 30.13 in 10.0 mi SSE 17.3 mph 24.2 mph N/A   Overcast
2:35 PM 53.6 °F - 41.0 °F 62% 30.12 in 10.0 mi SSE 13.8 mph 21.9 mph N/A   Overcast
2:55 PM 53.6 °F - 41.0 °F 62% 30.11 in 10.0 mi SSE 11.5 mph - N/A   Overcast
3:15 PM 55.4 °F - 37.4 °F 51% 30.10 in 10.0 mi SSE 13.8 mph 18.4 mph N/A   Overcast
3:35 PM 55.4 °F - 37.4 °F 51% 30.11 in 10.0 mi SSE 15.0 mph - N/A   Overcast
3:55 PM 55.4 °F - 35.6 °F 47% 30.10 in 10.0 mi SSE 15.0 mph 19.6 mph N/A   Overcast
4:15 PM 55.4 °F - 35.6 °F 47% 30.08 in 10.0 mi SE 13.8 mph - N/A   Overcast
4:35 PM 55.4 °F - 35.6 °F 47% 30.08 in 10.0 mi SSE 12.7 mph - N/A   Overcast
4:55 PM 57.2 °F - 35.6 °F 44% 30.08 in 10.0 mi SSE 11.5 mph - N/A   Overcast
5:15 PM 57.2 °F - 35.6 °F 44% 30.07 in 10.0 mi SSE 11.5 mph 16.1 mph N/A   Overcast
5:35 PM 57.2 °F - 35.6 °F 44% 30.08 in 10.0 mi SSE 10.4 mph - N/A   Overcast
5:55 PM 57.2 °F - 35.6 °F 44% 30.08 in 10.0 mi SSE 9.2 mph - N/A   Overcast
6:15 PM 55.4 °F - 37.4 °F 51% 30.08 in 10.0 mi SSE 8.1 mph - N/A   Overcast
6:35 PM 55.4 °F - 37.4 °F 51% 30.07 in 10.0 mi SSE 9.2 mph - N/A   Overcast
7:15 PM 55.4 °F - 37.4 °F 51% 30.07 in 10.0 mi SSE 8.1 mph - N/A   Overcast
7:35 PM 55.4 °F - 37.4 °F 51% 30.07 in 10.0 mi SSE 9.2 mph - N/A   Overcast
8:15 PM 55.4 °F - 37.4 °F 51% 30.07 in 10.0 mi SSE 9.2 mph - N/A   Overcast
8:35 PM 55.4 °F - 37.4 °F 51% 30.07 in 10.0 mi SSE 6.9 mph - N/A   Overcast
9:15 PM 55.4 °F - 37.4 °F 51% 30.08 in 10.0 mi SSE 6.9 mph - N/A   Overcast
9:35 PM 57.2 °F - 37.4 °F 48% 30.08 in 5.0 mi SSE 9.2 mph - N/A   Haze
9:55 PM 55.4 °F - 37.4 °F 51% 30.08 in 5.0 mi South 8.1 mph - N/A   Haze
10:15 PM 57.2 °F - 35.6 °F 44% 30.07 in 5.0 mi SSE 13.8 mph 19.6 mph N/A   Haze
10:35 PM 57.2 °F - 35.6 °F 44% 30.06 in 7.0 mi SSE 17.3 mph 27.6 mph N/A   Overcast
10:55 PM 57.2 °F - 37.4 °F 48% 30.06 in 10.0 mi South 17.3 mph 28.8 mph N/A   Overcast
11:15 PM 57.2 °F - 37.4 °F 48% 30.04 in 7.0 mi SSE 12.7 mph 25.3 mph N/A   Overcast
11:35 PM 57.2 °F - 35.6 °F 44% 30.03 in 10.0 mi SSE 15.0 mph 26.5 mph N/A   Overcast
11:55 PM 55.4 °F - 35.6 °F 47% 30.02 in 10.0 mi SSE 12.7 mph 23.0 mph N/A   Overcast